Location: Clanezzo
(45.7500°N, 9.6000°E)
Time: 16:01:07
(UTC+00:00)

N. Korean satellite - Pass Details

Date: 05 February 2022
Orbit: 437 x 477 km, 97.3° (Epoch: 27 May)

Event Time Altitude Azimuth Distance (km) Brightness Sun altitude
Rises 04:00:35 0° 22° (NNE) 2,601 10.6 -27.8°
Reaches altitude 10° 04:02:54 10° 34° (NE) 1,706 9.8 -27.4°
Maximum altitude 04:06:07 29° 96° (E) 940 8.6 -26.9°
Drops below altitude 10° 04:09:17 10° 157° (SSE) 1,669 9.5 -26.3°
Sets 04:11:31 0° 169° (S) 2,533 10.3 -25.9°
